Springfield, IL

18:04 CDT dnia 24-kwiecień-2017 (GMT -0500)
Capital

Pogoda Historia dla KSPI - kwiecień, 2017

Change the Weather History Date:

Piątek, kwiecień 21, 2017

  Actual Average Record
Temperature  
Temperatura średnia 53 ° F 56 ° F  
Temperatura maksymalna 60 ° F 67 ° F 87 ° F (1902)
Temperatura minimalna 46 ° F 44 ° F 28 ° F (1904)
Degree Days  
stopnio-dni grzewczych 12 10  
Month to date heating degree days 139 287  
Since 1 July heating degree days 3991 5269  
Cooling Degree Days 0 1  
Month to date cooling degree days 33 10  
Year to date cooling degree days 33 12  
Growing Degree Days 3 (Base 50)    
Moisture  
Punkt rosy 39 ° F    
Average Humidity 59    
Maximum Humidity 76    
Minimum Humidity 42    
Opady  
Opady 0.00 cali 0.12 cali 2.19 cali (1984)
Month to date precipitation 2.79 2.35  
Year to date precipitation 8.52 8.61  
śnieg  
śnieg 0.00 cali 0.00 cali T cali (1893)
Month to date snowfall 0.0 0.3  
Since 1 July snowfall 10.3 20.9  
Głębokość pokrywy śnieżnej 0.00 cali    
Ciśnienie na poziomie morza  
Ciśnienie na poziomie morza 30.08 cali    
Wiatr  
Prędkość wiatru 10 mph (północny)    
Maksymalna prędkość wiatru 25 mph    
Max Gust Speed 32 mph    
Widzialność 10 mil    
Wydarzenia      
T = Trace of Precipitation, MM = Missing Value Source: NWS Daily Summary

Daily Weather History Graph

Daily Weather History Graph

Search for Another Location

Airport or City:

Trip Planner

Search our weather history database for the weather conditions in past years. The results will help you decide how hot, cold, wet, or windy it might be!

Date:

Astronomia

Apr. 21, 2017 Wschód Zachów
Aktualny czas 06:11 CDT 19:43 CDT
Zmierzch cywilny 05:43 CDT 20:11 CDT
Zmierzch żeglarski 05:09 CDT 20:46 CDT
świt/zmierzch astronomiczny 04:33 CDT 21:22 CDT
Księżyc 03:29 CDT (4/21) 14:27 CDT (4/21)
całkowite oświetlenie 14h 28m
Długość dnia
13h 31m
Zmniejszający się sierp Księżyca, 28% of the Moon is Illuminated
Kwiecień 21
Zmniejszający się sierp Księżyca
Kwiecień 26
Nowy
Maj 2
Pierwsza kwadra
Maj 10
Pełnia Księżyca
Maj 18
Ostatnia kwadra

Hourly Weather History & Observations

czas (CDT) Temp. czynnik chłodzący wiatru Punkt rosy Wilgotność Ciśnienie Widzialność Wind Dir Prędkość wiatru prędkość w porywie Precip Wydarzenia Warunki pogodowe
12:52 AM 52.0 ° F - 42.1 ° F 69% 30.06 cali 10.0 mi PnZd 11.5 mph - N/A   pogodnie
1:52 AM 51.1 ° F - 39.9 ° F 66% 30.04 cali 10.0 mi PnZd 11.5 mph - N/A   pogodnie
2:52 AM 48.9 ° F - 39.9 ° F 71% 30.04 cali 10.0 mi PnZd 6.9 mph - N/A   pogodnie
3:52 AM 46.9 ° F - 39.9 ° F 77% 30.05 cali 10.0 mi PnZd 5.8 mph - N/A   pogodnie
4:42 AM 48.0 ° F - 39.0 ° F 71% 30.06 cali 10.0 mi PnZd 6.9 mph - N/A   przewaga chmur
4:52 AM 48.0 ° F - 39.0 ° F 71% 30.06 cali 10.0 mi PnPnZd 8.1 mph - N/A   przewaga chmur
5:04 AM 48.0 ° F - 39.0 ° F 71% 30.05 cali 10.0 mi PnZd 9.2 mph - N/A   obłoki zanikające
5:52 AM 46.0 ° F 43.1 ° F 39.0 ° F 76% 30.06 cali 10.0 mi PnPnZd 5.8 mph - N/A   pogodnie
6:52 AM 48.0 ° F - 39.9 ° F 74% 30.09 cali 10.0 mi ZdPnZd 5.8 mph - N/A   pogodnie
7:52 AM 50.0 ° F - 41.0 ° F 71% 30.10 cali 10.0 mi PnZd 6.9 mph - N/A   pogodnie
8:52 AM 52.0 ° F - 39.9 ° F 63% 30.12 cali 10.0 mi północny 8.1 mph - N/A   pogodnie
9:52 AM 52.0 ° F - 39.9 ° F 63% 30.11 cali 10.0 mi północny 9.2 mph - N/A   niewielkie zachmurzenie
10:52 AM 53.1 ° F - 39.9 ° F 61% 30.09 cali 10.0 mi PnPnWs 10.4 mph - N/A   niewielkie zachmurzenie
11:52 AM 55.0 ° F - 42.1 ° F 62% 30.09 cali 10.0 mi PnWs 8.1 mph - N/A   pogodnie
12:52 PM 55.9 ° F - 41.0 ° F 57% 30.08 cali 10.0 mi WsPnWs 4.6 mph - N/A   niewielkie zachmurzenie
1:52 PM 57.9 ° F - 42.1 ° F 56% 30.09 cali 10.0 mi PnWs 9.2 mph - N/A   pogodnie
2:52 PM 59.0 ° F - 39.9 ° F 49% 30.06 cali 10.0 mi PnPnWs 13.8 mph 18.4 mph N/A   pogodnie
3:52 PM 60.1 ° F - 37.9 ° F 44% 30.04 cali 10.0 mi PnPnWs 13.8 mph - N/A   pogodnie
4:52 PM 59.0 ° F - 37.9 ° F 46% 30.04 cali 10.0 mi PnWs 13.8 mph 23.0 mph N/A   pogodnie
5:52 PM 57.9 ° F - 37.9 ° F 47% 30.06 cali 10.0 mi PnWs 13.8 mph - N/A   pogodnie
6:52 PM 55.9 ° F - 37.0 ° F 49% 30.07 cali 10.0 mi PnPnWs 12.7 mph - N/A   pogodnie
7:52 PM 55.0 ° F - 36.0 ° F 49% 30.08 cali 10.0 mi PnPnWs 12.7 mph - N/A   pogodnie
8:52 PM 54.0 ° F - 37.0 ° F 53% 30.09 cali 10.0 mi WsPnWs 18.4 mph 26.5 mph N/A   pogodnie
9:52 PM 51.1 ° F - 36.0 ° F 56% 30.12 cali 10.0 mi WsPnWs 13.8 mph - N/A   pogodnie
10:52 PM 50.0 ° F - 34.0 ° F 54% 30.11 cali 10.0 mi PnWs 16.1 mph - N/A   pogodnie
11:52 PM 48.9 ° F - 34.0 ° F 56% 30.11 cali 10.0 mi WsPnWs 11.5 mph - N/A   pogodnie